TAM3459 SBLO-SBGR

Flight info

Callsign TAM3459
Flight time 0h 43m
Altitude 33000
Route AKTIT DCT IMTBI DCT ZARES
Aircraft A320/M-SDE3FGHIRWY/LB1

Departure

Time 2026-05-04 20:56
Airport Governor José Richa Airport (SBLO)

Arrival

Time 2026-05-04 21:40
Airport São Paulo/Guarulhos–Governor André Franco Montoro International Airport (SBGR)
Time Latitude Longitude Altitude Speed Heading
2026-05-04 20:35 -23.32933 -51.13773 1877 ft 0 kts 21°
2026-05-04 20:49 -23.32935 -51.13774 1878 ft 2 kts 21°
2026-05-04 20:50 -23.32956 -51.13781 1876 ft 3 kts 13°
2026-05-04 20:50 -23.32978 -51.13785 1876 ft 3 kts 354°
2026-05-04 20:50 -23.32996 -51.13779 1877 ft 3 kts 308°
2026-05-04 20:50 -23.33001 -51.13772 1873 ft 0 kts 290°
2026-05-04 20:53 -23.32998 -51.13780 1876 ft 2 kts 290°
2026-05-04 20:53 -23.32992 -51.13800 1878 ft 3 kts 290°
2026-05-04 20:54 -23.32982 -51.13829 1877 ft 5 kts 290°
2026-05-04 20:54 -23.32970 -51.13865 1878 ft 5 kts 291°
2026-05-04 20:54 -23.32956 -51.13905 1878 ft 6 kts 285°
2026-05-04 20:54 -23.32980 -51.13938 1878 ft 6 kts 209°
2026-05-04 20:55 -23.33018 -51.13953 1878 ft 6 kts 199°
2026-05-04 20:55 -23.33049 -51.13936 1877 ft 6 kts 106°
2026-05-04 20:55 -23.33052 -51.13924 1878 ft 1 kts 108°
2026-05-04 20:55 -23.33054 -51.13920 1878 ft 6 kts 108°
2026-05-04 20:56 -23.33163 -51.13589 1878 ft 87 kts 110°
2026-05-04 20:56 -23.33447 -51.12734 1881 ft 150 kts 109°
2026-05-04 20:56 -23.33836 -51.11597 2436 ft 162 kts 110°
2026-05-04 20:56 -23.34240 -51.10423 2941 ft 175 kts 108°
2026-05-04 20:57 -23.34679 -51.09103 3251 ft 196 kts 108°
2026-05-04 20:57 -23.35170 -51.07622 3481 ft 220 kts 108°
2026-05-04 20:57 -23.35497 -51.05922 3763 ft 242 kts 82°
2026-05-04 20:57 -23.34832 -51.04199 4140 ft 260 kts 49°
2026-05-04 20:58 -23.33643 -51.02702 4842 ft 269 kts 46°
2026-05-04 20:58 -23.32407 -51.01155 5643 ft 274 kts 46°
2026-05-04 20:58 -23.31247 -50.99481 6477 ft 280 kts 53°
2026-05-04 20:58 -23.30227 -50.97661 7270 ft 284 kts 57°
2026-05-04 20:59 -23.29259 -50.95773 8072 ft 287 kts 58°
2026-05-04 20:59 -23.28295 -50.93853 8895 ft 291 kts 58°
2026-05-04 20:59 -23.27313 -50.91918 9697 ft 294 kts 58°
2026-05-04 20:59 -23.26299 -50.89960 10323 ft 304 kts 58°
2026-05-04 21:00 -23.25202 -50.87886 10536 ft 328 kts 58°
2026-05-04 21:00 -23.24029 -50.85691 10957 ft 341 kts 58°
2026-05-04 21:00 -23.22818 -50.83433 11590 ft 348 kts 58°
2026-05-04 21:00 -23.21594 -50.81150 12260 ft 352 kts 58°
2026-05-04 21:01 -23.20351 -50.78828 12931 ft 357 kts 58°
2026-05-04 21:01 -23.19092 -50.76477 13575 ft 362 kts 58°
2026-05-04 21:01 -23.17832 -50.74126 14168 ft 367 kts 58°
2026-05-04 21:01 -23.16540 -50.71712 14708 ft 372 kts 58°
2026-05-04 21:02 -23.15227 -50.69266 15256 ft 377 kts 58°
2026-05-04 21:02 -23.13895 -50.66791 15790 ft 382 kts 59°
2026-05-04 21:02 -23.12538 -50.64276 16327 ft 387 kts 59°
2026-05-04 21:02 -23.11164 -50.61736 16856 ft 393 kts 59°
2026-05-04 21:03 -23.09772 -50.59164 17360 ft 398 kts 59°
2026-05-04 21:03 -23.08362 -50.56552 17868 ft 403 kts 59°
2026-05-04 21:03 -23.06941 -50.53911 18369 ft 407 kts 59°
2026-05-04 21:03 -23.05502 -50.51239 18801 ft 412 kts 59°
2026-05-04 21:04 -23.04046 -50.48539 19259 ft 415 kts 59°
2026-05-04 21:04 -23.02746 -50.45727 19707 ft 419 kts 68°
2026-05-04 21:04 -23.01679 -50.42770 20165 ft 422 kts 69°
2026-05-04 21:04 -23.00601 -50.39790 20624 ft 426 kts 69°
2026-05-04 21:05 -22.99525 -50.36829 21054 ft 429 kts 69°
2026-05-04 21:05 -22.98408 -50.33768 21507 ft 432 kts 69°
2026-05-04 21:05 -22.97294 -50.30725 21941 ft 436 kts 69°
2026-05-04 21:05 -22.96173 -50.27656 22376 ft 439 kts 69°
2026-05-04 21:06 -22.95040 -50.24564 22813 ft 443 kts 69°
2026-05-04 21:06 -22.93914 -50.21492 23239 ft 446 kts 69°
2026-05-04 21:06 -22.92765 -50.18356 23653 ft 449 kts 69°
2026-05-04 21:06 -22.91610 -50.15194 24007 ft 452 kts 69°
2026-05-04 21:07 -22.90447 -50.12007 24352 ft 456 kts 69°
2026-05-04 21:07 -22.89274 -50.08799 24700 ft 459 kts 69°
2026-05-04 21:07 -22.88093 -50.05576 25031 ft 462 kts 69°
2026-05-04 21:07 -22.86900 -50.02322 25365 ft 465 kts 69°
2026-05-04 21:08 -22.85697 -49.99051 25695 ft 469 kts 69°
2026-05-04 21:08 -22.84483 -49.95753 26029 ft 472 kts 69°
2026-05-04 21:08 -22.83261 -49.92440 26360 ft 475 kts 69°
2026-05-04 21:08 -22.82446 -49.90233 26578 ft 477 kts 69°
2026-05-04 21:09 -22.81207 -49.86876 26915 ft 480 kts 69°
2026-05-04 21:09 -22.79963 -49.83499 27225 ft 484 kts 69°
2026-05-04 21:09 -22.78304 -49.78994 27652 ft 488 kts 69°
2026-05-04 21:09 -22.77040 -49.75570 27977 ft 491 kts 69°
2026-05-04 21:10 -22.76183 -49.73248 28188 ft 493 kts 69°
2026-05-04 21:10 -22.74492 -49.68661 28613 ft 497 kts 69°
2026-05-04 21:10 -22.73624 -49.66309 28819 ft 499 kts 69°
2026-05-04 21:10 -22.72329 -49.62812 29115 ft 502 kts 68°
2026-05-04 21:11 -22.71039 -49.59336 29420 ft 505 kts 68°
2026-05-04 21:11 -22.69719 -49.55794 29707 ft 508 kts 68°
2026-05-04 21:11 -22.68388 -49.52233 29999 ft 511 kts 68°
2026-05-04 21:11 -22.67055 -49.48662 30255 ft 513 kts 68°
2026-05-04 21:12 -22.65713 -49.45062 30488 ft 516 kts 68°
2026-05-04 21:12 -22.64371 -49.41455 30737 ft 518 kts 69°
2026-05-04 21:12 -22.63024 -49.37836 30988 ft 519 kts 69°
2026-05-04 21:12 -22.61672 -49.34200 31243 ft 521 kts 69°
2026-05-04 21:13 -22.60322 -49.30558 31550 ft 521 kts 69°
2026-05-04 21:13 -22.59007 -49.26904 31904 ft 520 kts 73°
2026-05-04 21:13 -22.58083 -49.23134 32248 ft 516 kts 82°
2026-05-04 21:13 -22.57661 -49.19298 32592 ft 512 kts 91°
2026-05-04 21:14 -22.57761 -49.15474 32933 ft 506 kts 101°
2026-05-04 21:14 -22.58286 -49.11780 33053 ft 500 kts 105°
2026-05-04 21:14 -22.59464 -49.04488 33078 ft 487 kts 105°
2026-05-04 21:15 -22.60624 -48.97282 33076 ft 486 kts 105°
2026-05-04 21:15 -22.61775 -48.90075 33083 ft 485 kts 104°
2026-05-04 21:16 -22.62927 -48.82881 33078 ft 485 kts 105°
2026-05-04 21:16 -22.64085 -48.75676 33083 ft 486 kts 105°
2026-05-04 21:17 -22.65232 -48.68468 33090 ft 486 kts 105°
2026-05-04 21:17 -22.66373 -48.61256 33081 ft 486 kts 104°
2026-05-04 21:18 -22.67514 -48.54046 33083 ft 486 kts 104°
2026-05-04 21:18 -22.68640 -48.46884 33090 ft 486 kts 104°
2026-05-04 21:19 -22.69769 -48.39666 33090 ft 486 kts 104°
2026-05-04 21:19 -22.70898 -48.32446 33109 ft 486 kts 104°
2026-05-04 21:20 -22.72028 -48.25220 33100 ft 487 kts 104°
2026-05-04 21:20 -22.73157 -48.17984 33046 ft 491 kts 104°
2026-05-04 21:21 -22.73732 -48.14305 32217 ft 498 kts 104°
2026-05-04 21:21 -22.74309 -48.10594 31389 ft 501 kts 104°
2026-05-04 21:21 -22.74881 -48.06884 30776 ft 498 kts 103°
2026-05-04 21:21 -22.75445 -48.03195 30159 ft 495 kts 103°
2026-05-04 21:22 -22.76004 -47.99529 29614 ft 490 kts 103°
2026-05-04 21:22 -22.76750 -47.95963 28997 ft 480 kts 113°
2026-05-04 21:22 -22.77989 -47.92661 28457 ft 468 kts 122°
2026-05-04 21:22 -22.79495 -47.89562 27965 ft 461 kts 123°
2026-05-04 21:23 -22.80978 -47.86505 27454 ft 456 kts 123°
2026-05-04 21:23 -22.82419 -47.83513 26999 ft 451 kts 123°
2026-05-04 21:23 -22.83845 -47.80539 26781 ft 438 kts 123°
2026-05-04 21:23 -22.85231 -47.77641 26549 ft 428 kts 123°
2026-05-04 21:24 -22.86596 -47.74798 26321 ft 422 kts 123°
2026-05-04 21:24 -22.87951 -47.71984 26080 ft 420 kts 123°
2026-05-04 21:24 -22.89300 -47.69188 25846 ft 417 kts 123°
2026-05-04 21:24 -22.90646 -47.66400 25619 ft 415 kts 122°
2026-05-04 21:25 -22.91982 -47.63629 25387 ft 414 kts 122°
2026-05-04 21:25 -22.93314 -47.60866 25158 ft 412 kts 122°
2026-05-04 21:25 -22.94637 -47.58119 24942 ft 410 kts 122°
2026-05-04 21:25 -22.95949 -47.55383 24706 ft 408 kts 122°
2026-05-04 21:26 -22.97297 -47.52678 23939 ft 408 kts 123°
2026-05-04 21:26 -22.98731 -47.50015 22863 ft 408 kts 125°
2026-05-04 21:26 -23.00213 -47.47387 21765 ft 409 kts 125°
2026-05-04 21:26 -23.01715 -47.44774 20897 ft 405 kts 125°
2026-05-04 21:27 -23.03175 -47.42225 20412 ft 390 kts 125°
2026-05-04 21:27 -23.04586 -47.39729 19948 ft 387 kts 124°
2026-05-04 21:27 -23.05984 -47.37229 19460 ft 387 kts 124°
2026-05-04 21:27 -23.07374 -47.34727 18982 ft 387 kts 124°
2026-05-04 21:28 -23.08762 -47.32221 18493 ft 388 kts 123°
2026-05-04 21:28 -23.10143 -47.29720 17979 ft 387 kts 123°
2026-05-04 21:28 -23.11523 -47.27216 17501 ft 385 kts 123°
2026-05-04 21:28 -23.12896 -47.24726 17039 ft 383 kts 123°
2026-05-04 21:29 -23.14260 -47.22251 16638 ft 379 kts 123°
2026-05-04 21:29 -23.15615 -47.19795 16187 ft 377 kts 123°
2026-05-04 21:29 -23.16960 -47.17360 15720 ft 376 kts 123°
2026-05-04 21:29 -23.18285 -47.14957 15347 ft 366 kts 123°
2026-05-04 21:30 -23.19581 -47.12606 14736 ft 357 kts 123°
2026-05-04 21:30 -23.20854 -47.10296 14293 ft 356 kts 123°
2026-05-04 21:30 -23.22125 -47.07989 13845 ft 355 kts 123°
2026-05-04 21:30 -23.23374 -47.05717 13387 ft 354 kts 122°
2026-05-04 21:31 -23.25891 -47.01143 12350 ft 354 kts 122°
2026-05-04 21:31 -23.27136 -46.98879 11838 ft 343 kts 122°
2026-05-04 21:31 -23.28350 -46.96667 11419 ft 340 kts 122°
2026-05-04 21:32 -23.29560 -46.94462 10979 ft 339 kts 122°
2026-05-04 21:32 -23.30769 -46.92259 10541 ft 339 kts 121°
2026-05-04 21:32 -23.31977 -46.90059 10098 ft 339 kts 121°
2026-05-04 21:32 -23.33171 -46.87883 9914 ft 329 kts 121°
2026-05-04 21:33 -23.34326 -46.85777 9640 ft 321 kts 121°
2026-05-04 21:33 -23.35450 -46.83731 9227 ft 309 kts 121°
2026-05-04 21:33 -23.36530 -46.81764 8846 ft 297 kts 121°
2026-05-04 21:33 -23.37569 -46.79870 8475 ft 286 kts 121°
2026-05-04 21:34 -23.38567 -46.78054 8124 ft 275 kts 121°
2026-05-04 21:34 -23.39527 -46.76295 7785 ft 266 kts 121°
2026-05-04 21:34 -23.40467 -46.74571 7449 ft 264 kts 121°
2026-05-04 21:34 -23.41394 -46.72877 7113 ft 258 kts 121°
2026-05-04 21:35 -23.42302 -46.71215 6788 ft 252 kts 121°
2026-05-04 21:35 -23.43210 -46.69605 6462 ft 245 kts 123°
2026-05-04 21:35 -23.44149 -46.68084 6138 ft 239 kts 123°
2026-05-04 21:35 -23.45087 -46.66615 5839 ft 234 kts 124°
2026-05-04 21:36 -23.46005 -46.65180 5538 ft 228 kts 124°
2026-05-04 21:36 -23.46837 -46.63774 5220 ft 220 kts 114°
2026-05-04 21:36 -23.47220 -46.62228 4911 ft 206 kts 93°
2026-05-04 21:36 -23.47115 -46.60733 4653 ft 191 kts 74°
2026-05-04 21:37 -23.46759 -46.59392 4429 ft 178 kts 72°
2026-05-04 21:37 -23.46423 -46.58145 4209 ft 166 kts 72°
2026-05-04 21:37 -23.46107 -46.56969 4000 ft 159 kts 73°
2026-05-04 21:37 -23.45799 -46.55826 3829 ft 155 kts 72°
2026-05-04 21:38 -23.45496 -46.54701 3639 ft 154 kts 73°
2026-05-04 21:38 -23.45198 -46.53596 3441 ft 151 kts 74°
2026-05-04 21:38 -23.44900 -46.52490 3233 ft 154 kts 74°
2026-05-04 21:38 -23.44599 -46.51375 3023 ft 154 kts 76°
2026-05-04 21:39 -23.44297 -46.50250 2813 ft 155 kts 77°
2026-05-04 21:39 -23.43990 -46.49119 2578 ft 156 kts 75°
2026-05-04 21:39 -23.43698 -46.48015 2470 ft 143 kts 77°
2026-05-04 21:39 -23.43476 -46.47194 2465 ft 63 kts 73°
2026-05-04 21:40 -23.43321 -46.46883 2465 ft 31 kts 46°
2026-05-04 21:40 -23.43172 -46.46724 2469 ft 27 kts 36°
2026-05-04 21:40 -23.42996 -46.46746 2468 ft 27 kts 343°
2026-05-04 21:40 -23.42873 -46.46785 2467 ft 10 kts 343°
2026-05-04 21:41 -23.42813 -46.46804 2468 ft 9 kts 343°
2026-05-04 21:41 -23.42769 -46.46838 2463 ft 8 kts 279°
2026-05-04 21:41 -23.42781 -46.46889 2470 ft 5 kts 254°
2026-05-04 21:41 -23.42785 -46.46905 2468 ft 0 kts 254°
2026-05-04 21:42 -23.42791 -46.46927 2468 ft 8 kts 255°
2026-05-04 21:42 -23.42820 -46.47040 2466 ft 22 kts 254°
2026-05-04 21:42 -23.42872 -46.47230 2467 ft 17 kts 253°
2026-05-04 21:42 -23.42907 -46.47358 2464 ft 23 kts 253°
2026-05-04 21:43 -23.42947 -46.47506 2464 ft 23 kts 254°
2026-05-04 21:43 -23.43001 -46.47706 2465 ft 32 kts 253°
2026-05-04 21:43 -23.43050 -46.47885 2465 ft 23 kts 254°
2026-05-04 21:43 -23.43092 -46.48041 2467 ft 18 kts 253°
2026-05-04 21:44 -23.43130 -46.48182 2470 ft 17 kts 253°
2026-05-04 21:44 -23.43167 -46.48320 2469 ft 15 kts 253°
2026-05-04 21:44 -23.43153 -46.48408 2466 ft 17 kts 324°
2026-05-04 21:44 -23.43060 -46.48442 2465 ft 16 kts 344°
2026-05-04 21:45 -23.42937 -46.48449 2468 ft 16 kts
2026-05-04 21:45 -23.42894 -46.48447 2468 ft 5 kts
2026-05-04 21:45 -23.42873 -46.48424 2467 ft 8 kts 82°
2026-05-04 21:45 -23.42870 -46.48389 2465 ft 6 kts 86°
2026-05-04 21:46 -23.42867 -46.48349 2465 ft 4 kts 85°
2026-05-04 21:46 -23.42867 -46.48345 2465 ft 0 kts 84°
2026-05-04 21:46 -23.42867 -46.48344 2465 ft 0 kts 84°